| time (UTC) | temp F | wind direction | speed knots | gust knots | rain 1hr in | rain 24hr in | rain mn in | humidity % | barometer mb |
| 20260506084552 | 44 | 155 | 7.0 | 13.0 | 0.00 | 0.00 | 0.00 | 92 | 1017.1 |
| 20260506083053 | 44 | 226 | 5.2 | 10.4 | 0.00 | 0.00 | 0.00 | 92 | 1017.3 |
| 20260506081600 | 44 | 174 | 7.0 | 13.9 | 0.00 | 0.00 | 0.00 | 92 | 1017.1 |
| 20260506073032 | 47 | 189 | 6.1 | 14.8 | 0.00 | 0.00 | 0.00 | 91 | 1017.0 |
| 20260506071531 | 47 | 207 | 7.0 | 14.8 | 0.00 | 0.00 | 0.00 | 91 | 1016.7 |
| 20260506061524 | 49 | 216 | 7.8 | 15.6 | 0.00 | 0.00 | 0.00 | 92 | 1016.7 |
| 20260506044518 | 49 | 198 | 7.0 | 17.4 | 0.00 | 0.00 | 0.00 | 91 | 1016.6 |
| 20260506043017 | 49 | 227 | 5.2 | 15.6 | 0.00 | 0.00 | 0.00 | 91 | 1016.7 |
| 20260506041515 | 49 | 227 | 7.8 | 13.9 | 0.00 | 0.00 | 0.00 | 91 | 1016.6 |
| 20260506040014 | 50 | 198 | 5.2 | 14.8 | 0.00 | 0.00 | 0.00 | 91 | 1016.5 |
| 20260506034513 | 50 | 207 | 7.8 | 15.6 | 0.00 | 0.00 | 0.00 | 91 | 1016.4 |
| 20260506033013 | 51 | 216 | 8.7 | 20.9 | 0.00 | 0.00 | 0.00 | 91 | 1016.3 |
| 20260506031511 | 50 | 250 | 9.6 | 19.1 | 0.00 | 0.00 | 0.00 | 91 | 1016.3 |
| 20260506030005 | 48 | 240 | 7.8 | 15.6 | 0.00 | 0.00 | 0.00 | 92 | 1016.3 |
| 20260506024505 | 48 | 167 | 7.0 | 17.4 | 0.00 | 0.00 | 0.00 | 91 | 1016.4 |
| 20260506023001 | 50 | 239 | 7.0 | 20.9 | 0.00 | 0.00 | 0.00 | 91 | 1016.5 |
| 20260506021603 | 50 | 189 | 7.8 | 17.4 | 0.00 | 0.00 | 0.00 | 92 | 1016.3 |
| 20260506020059 | 49 | 232 | 12.2 | 25.2 | 0.00 | 0.00 | 0.00 | 92 | 1016.3 |
| 20260506014557 | 49 | 113 | 7.8 | 15.6 | 0.00 | 0.00 | 0.00 | 93 | 1016.1 |
| 20260506013108 | 47 | 187 | 7.8 | 14.8 | 0.00 | 0.00 | 0.00 | 93 | 1015.9 |
| 20260506011558 | 46 | 229 | 7.0 | 13.9 | 0.00 | 0.00 | 0.00 | 92 | 1015.7 |
| 20260506010114 | 47 | 212 | 7.0 | 13.9 | 0.00 | 0.00 | 0.00 | 92 | 1015.7 |
| 20260506004551 | 46 | 155 | 7.8 | 16.5 | 0.00 | 0.00 | 0.00 | 92 | 1015.4 |
| 20260506003049 | 47 | 154 | 6.1 | 13.9 | 0.00 | 0.00 | 0.00 | 92 | 1015.2 |
| 20260506001555 | 46 | 230 | 5.2 | 14.8 | 0.00 | 0.00 | 0.00 | 92 | 1015.1 |
| 20260506000048 | 46 | 202 | 6.1 | 13.9 | 0.00 | 0.00 | 0.00 | 92 | 1014.8 |
| 20260505234545 | 46 | 188 | 7.8 | 14.8 | 0.00 | 0.00 | 0.00 | 91 | 1014.7 |
| 20260505233052 | 45 | 167 | 6.1 | 13.0 | 0.00 | 0.00 | 0.00 | 91 | 1014.4 |
| 20260505231541 | 47 | 176 | 6.1 | 13.0 | 0.00 | 0.00 | 0.00 | 90 | 1014.2 |
| 20260505230051 | 47 | 216 | 5.2 | 12.2 | 0.00 | 0.00 | 0.00 | 90 | 1014.0 |
| 20260505224544 | 47 | 220 | 5.2 | 13.0 | 0.00 | 0.00 | 0.00 | 90 | 1014.0 |
| 20260505223044 | 48 | 189 | 3.5 | 11.3 | 0.00 | 0.00 | 0.00 | 88 | 1013.8 |
| 20260505221538 | 50 | 202 | 7.0 | 13.0 | 0.00 | 0.00 | 0.00 | 85 | 1013.7 |
| 20260505220037 | 51 | 207 | 6.1 | 14.8 | 0.00 | 0.00 | 0.00 | 83 | 1013.6 |
| 20260505214536 | 51 | 218 | 5.2 | 10.4 | 0.00 | 0.00 | 0.00 | 81 | 1013.5 |
| 20260505213035 | 53 | 180 | 4.3 | 13.0 | 0.00 | 0.00 | 0.00 | 79 | 1013.4 |
| 20260505211535 | 54 | 202 | 5.2 | 15.6 | 0.00 | 0.00 | 0.00 | 76 | 1013.3 |
| 20260505210033 | 54 | 207 | 6.1 | 13.0 | 0.00 | 0.00 | 0.00 | 76 | 1013.3 |
| 20260505204531 | 56 | 212 | 4.3 | 15.6 | 0.00 | 0.00 | 0.00 | 73 | 1013.4 |
| 20260505203036 | 57 | 223 | 7.0 | 14.8 | 0.00 | 0.00 | 0.00 | 72 | 1013.5 |
| 20260505201535 | 56 | 202 | 8.7 | 15.6 | 0.00 | 0.00 | 0.00 | 72 | 1013.4 |
| 20260505200029 | 56 | 195 | 6.1 | 14.8 | 0.00 | 0.00 | 0.00 | 71 | 1013.2 |
| 20260505194526 | 57 | 178 | 6.1 | 12.2 | 0.00 | 0.00 | 0.00 | 71 | 1013.0 |
| 20260505193026 | 59 | 212 | 5.2 | 14.8 | 0.00 | 0.00 | 0.00 | 67 | 1012.8 |
| 20260505191522 | 61 | 207 | 7.0 | 13.9 | 0.00 | 0.00 | 0.00 | 67 | 1012.9 |
| 20260505190027 | 59 | 187 | 6.1 | 16.5 | 0.00 | 0.00 | 0.00 | 70 | 1012.8 |
| 20260505184519 | 56 | 165 | 7.0 | 14.8 | 0.00 | 0.00 | 0.00 | 74 | 1012.6 |
| 20260505183015 | 56 | 155 | 7.0 | 12.2 | 0.00 | 0.00 | 0.00 | 74 | 1012.5 |
| 20260505181513 | 55 | 216 | 4.3 | 12.2 | 0.00 | 0.00 | 0.00 | 74 | 1012.5 |
| 20260505180009 | 55 | 185 | 4.3 | 10.4 | 0.00 | 0.00 | 0.00 | 74 | 1012.6 |
| 20260505174506 | 55 | 189 | 5.2 | 12.2 | 0.00 | 0.00 | 0.00 | 75 | 1012.7 |
| 20260505173001 | 56 | 187 | 5.2 | 9.6 | 0.00 | 0.00 | 0.00 | 73 | 1012.6 |
| 20260505171602 | 56 | 126 | 5.2 | 14.8 | 0.00 | 0.00 | 0.00 | 70 | 1012.7 |
| 20260505170052 | 54 | 177 | 7.0 | 12.2 | 0.00 | 0.00 | 0.00 | 76 | 1012.6 |
| 20260505164548 | 53 | 172 | 6.1 | 11.3 | 0.00 | 0.00 | 0.00 | 77 | 1012.6 |
| 20260505163044 | 53 | 178 | 7.0 | 13.0 | 0.00 | 0.00 | 0.00 | 78 | 1012.5 |
| 20260505161548 | 53 | 190 | 7.0 | 13.0 | 0.00 | 0.00 | 0.00 | 77 | 1012.4 |
| 20260505153040 | 52 | 168 | 6.1 | 13.0 | 0.00 | 0.00 | 0.00 | 77 | 1012.5 |
| 20260505151538 | 51 | 151 | 7.8 | 14.8 | 0.00 | 0.00 | 0.00 | 78 | 1012.3 |
| 20260505124510 | 51 | 202 | 5.2 | 9.6 | 0.00 | 0.00 | 0.00 | 81 | 1011.9 |
| 20260505123006 | 49 | 180 | 2.6 | 9.6 | 0.00 | 0.00 | 0.00 | 83 | 1011.9 |
| 20260505121505 | 49 | 165 | 3.5 | 7.8 | 0.00 | 0.00 | 0.00 | 84 | 1011.7 |
| 20260505120008 | 48 | 143 | 2.6 | 7.8 | 0.00 | 0.00 | 0.00 | 82 | 1011.8 |
| 20260505114502 | 50 | 191 | 2.6 | 7.8 | 0.00 | 0.00 | 0.00 | 82 | 1011.8 |
| 20260505113058 | 50 | 207 | 1.7 | 8.7 | 0.00 | 0.00 | 0.00 | 81 | 1011.7 |
| 20260505111554 | 49 | 218 | 2.6 | 7.8 | 0.00 | 0.00 | 0.00 | 84 | 1011.6 |
| 20260505101539 | 44 | 241 | 2.6 | 7.0 | 0.00 | 0.01 | 0.00 | 89 | 1011.0 |
| 20260505100037 | 43 | 207 | 1.7 | 5.2 | 0.00 | 0.01 | 0.00 | 90 | 1010.8 |
| 20260505094536 | 42 | 231 | 0.9 | 6.1 | 0.00 | 0.02 | 0.00 | 90 | 1010.7 |
| 20260505093039 | 41 | 255 | 1.7 | 7.8 | 0.00 | 0.02 | 0.00 | 91 | 1010.6 |
| 20260505091531 | 40 | 249 | 0.0 | 2.6 | 0.00 | 0.02 | 0.00 | 92 | 1010.4 |
| 20260505090040 | 38 | 250 | 0.0 | 1.7 | 0.00 | 0.02 | 0.00 | 92 | 1010.2 |